Regional Weather Roundup
Issued by NWS Memphis, TN

Home | Current Version | Previous Version | Text Only | Print | Product List | Glossary On
Versions: 1 2 3 4 5 6 7 8 9 10 11 12 13 14 15 16 17 18 19 20 21 22 23 24 25 26 27 28 29 30 31 32 33 34 35 36 37 38 39 40 41 42 43 44 45 46 47 48 49 50
000
ASUS44 KMEG 140810
RWRMEG
MEMPHIS CWA HOURLY WEATHER ROUNDUP
NATIONAL WEATHER SERVICE MEMPHIS TN
200 AM CST SUN FEB 14 2016

...WEST TENNESSEE...

CITY           SKY/WX    TMP DP  RH WIND       PRES   REMARKS
MEMPHIS INTL   CLOUDY    31   9  39 E8        30.30S WCI  23
NWS MEMPHIS      N/A     28 N/A N/A MISG        N/A
JACKSON        CLOUDY    27   8  44 E7        30.32F WCI  19
LEXINGTON      CLEAR     25   3  39 E5        30.33F WCI  19
DYERSBURG      CLOUDY    27  10  50 E6        30.36R WCI  20
UNION CITY     CLOUDY    27   7  43 E7        30.34S WCI  19
PARIS          CLOUDY    25   7  46 E8        30.34F WCI  16


...EASTERN ARKANSAS...

CITY           SKY/WX    TMP DP  RH WIND       PRES   REMARKS
JONESBORO      CLOUDY    27  15  61 NE10      30.33F WCI  17
WEST MEMPHIS   CLOUDY    31  10  41 E7        30.31R WCI  24
BATESVILLE     CLOUDY    27  10  50 E3        30.32F
NEWPORT        CLOUDY    28  12  51 NE12      30.33F WCI  18
WALNUT RIDGE   CLOUDY    27  10  50 E7        30.34F WCI  19
BLYTHEVILLE    CLOUDY    28  14  55 E6        30.35R WCI  22
SEARCY         CLOUDY    30  16  55 NE12      30.31S WCI  21
STUTTGART      CLOUDY    34  16  47 NE10      30.27S WCI  26
PINE BLUFF     CLOUDY    36  17  46 E8        30.24F WCI  30
MONTICELLO     MOCLDY    38  17  42 E5        30.22F WCI  34


...NORTH MISSISSIPPI...

CITY           SKY/WX    TMP DP  RH WIND       PRES   REMARKS
TUPELO         CLEAR     30   8  39 E3        30.31F
TUNICA         CLOUDY    32  12  43 E3        30.30F
CORINTH        CLEAR     28   9  43 E5        30.31S WCI  23
GREENWOOD      MOCLDY    35  11  36 VRB3      30.27F
COLUMBUS       PTCLDY    29  12  49 E6        30.31F WCI  23
STARKVILLE     FAIR      30  14  51 CALM      30.32S
GOLDEN TRIANGL CLEAR     32   9  37 E7        30.30S WCI  26


...SOUTHEAST MISSOURI...

CITY           SKY/WX    TMP DP  RH WIND       PRES   REMARKS
WEST PLAINS    CLOUDY    24   4  42 SE10      30.24F WCI  14
POPLAR BLUFF   CLOUDY    28   9  44 E6        30.35S WCI  22
CAPE GIRARDEAU CLOUDY    25   8  48 E9        30.37S WCI  15


...NORTHWEST ALABAMA...

CITY           SKY/WX    TMP DP  RH WIND       PRES   REMARKS
MUSCLE SHOALS  CLOUDY    27   9  46 E6        30.34F WCI  20


...MIDDLE TENNESSEE...

CITY           SKY/WX    TMP DP  RH WIND       PRES   REMARKS
NASHVILLE      CLOUDY    27   4  37 E10       30.38F WCI  17
CLARKSVILLE    CLOUDY    25   7  46 E9        30.37F WCI  15
COLUMBIA       CLOUDY    27   9  46 E6        30.34F WCI  20


...WESTERN KENTUCKY...

CITY           SKY/WX    TMP DP  RH WIND       PRES   REMARKS
PADUCAH        CLOUDY    25   9  50 E10       30.36F WCI  15
FORT CAMPBELL  CLOUDY    25   6  45 E10       30.36F WCI  15


...CENTRAL ARKANSAS...

CITY           SKY/WX    TMP DP  RH WIND       PRES   REMARKS
LITTLE ROCK    CLOUDY    33  14  45 E10       30.27F WCI  25


SKY/WX REPORTED AS FAIR MEANS FEW OR NO CLOUDS BELOW
12 THOUSAND FEET.




USA.gov is the U.S. government's official web portal to all federal, state and local government web resources and services.